TimeEST,TemperatureF,Dew PointF,Humidity,Sea Level PressureIn,VisibilityMPH,Wind Direction,Wind SpeedMPH,Gust SpeedMPH,PrecipitationIn,Events,Conditions,WindDirDegrees,DateUTC
12:52 AM,-2.0,-7.1,79,30.28,10.0,Calm,Calm,-,N/A,,Clear,0,2013-02-10 05:52:00
1:52 AM,-9.9,-15.0,78,30.31,10.0,Calm,Calm,-,N/A,,Clear,0,2013-02-10 06:52:00
2:52 AM,-11.9,-18.0,74,30.32,10.0,Calm,Calm,-,N/A,,Clear,0,2013-02-10 07:52:00
3:52 AM,-16.1,-20.9,79,30.34,10.0,Calm,Calm,-,N/A,,Clear,0,2013-02-10 08:52:00
4:52 AM,-17.0,-23.1,74,30.36,10.0,Calm,Calm,-,N/A,,Clear,0,2013-02-10 09:52:00
5:52 AM,-18.0,-24.0,74,30.38,10.0,Calm,Calm,-,N/A,,Clear,0,2013-02-10 10:52:00
6:52 AM,-18.9,-26.0,70,30.41,10.0,Calm,Calm,-,N/A,,Clear,0,2013-02-10 11:52:00
7:52 AM,-16.1,-20.9,79,30.43,8.0,Calm,Calm,-,N/A,,Clear,0,2013-02-10 12:52:00
8:52 AM,-4.0,-8.0,83,30.44,10.0,Calm,Calm,-,N/A,,Clear,0,2013-02-10 13:52:00
9:52 AM,7.0,-2.9,64,30.42,10.0,Calm,Calm,-,N/A,,Clear,0,2013-02-10 14:52:00
10:52 AM,16.0,-4.0,41,30.42,10.0,Calm,Calm,-,N/A,,Clear,0,2013-02-10 15:52:00
11:52 AM,21.9,-2.9,34,30.40,10.0,Calm,Calm,-,N/A,,Clear,0,2013-02-10 16:52:00
12:52 PM,25.0,-0.9,33,30.40,10.0,WNW,5.8,-,N/A,,Clear,300,2013-02-10 17:52:00
1:52 PM,27.0,-0.0,31,30.38,10.0,NW,3.5,-,N/A,,Clear,320,2013-02-10 18:52:00
2:52 PM,26.1,1.0,34,30.37,10.0,WSW,5.8,-,N/A,,Clear,250,2013-02-10 19:52:00
3:52 PM,27.0,-0.9,30,30.38,10.0,WNW,5.8,-,N/A,,Clear,300,2013-02-10 20:52:00
4:52 PM,24.1,1.0,37,30.40,10.0,Calm,Calm,-,N/A,,Clear,0,2013-02-10 21:52:00
5:52 PM,14.0,7.0,74,30.40,10.0,Calm,Calm,-,N/A,,Clear,0,2013-02-10 22:52:00
6:52 PM,8.1,3.9,83,30.42,10.0,Calm,Calm,-,N/A,,Clear,0,2013-02-10 23:52:00
7:52 PM,6.1,1.0,80,30.40,10.0,Calm,Calm,-,N/A,,Clear,0,2013-02-11 00:52:00
8:52 PM,1.0,-4.0,79,30.40,10.0,Calm,Calm,-,N/A,,Clear,0,2013-02-11 01:52:00
9:52 PM,-0.0,-5.1,79,30.37,10.0,Calm,Calm,-,N/A,,Clear,0,2013-02-11 02:52:00
10:52 PM,-4.0,-9.0,79,30.37,10.0,Calm,Calm,-,N/A,,Clear,0,2013-02-11 03:52:00
11:52 PM,-5.1,-11.0,76,30.36,10.0,Calm,Calm,-,N/A,,Clear,0,2013-02-11 04:52:00